Eddersheim, Germany

4:21 PM CEST on April 29, 2017 (GMT +0200)
Eddersheim

Weather History for 10637 - December, 2013

Change the Weather History Date:

Saturday, December 28, 2013

  Actual Average Record
Temperature  
Mean Temperature 46 °F -  
Max Temperature 49 °F 38 °F - ()
Min Temperature 44 °F 29 °F - ()
Degree Days  
Heating Degree Days 18    
Moisture  
Dew Point 42 °F    
Average Humidity 82    
Maximum Humidity 100    
Minimum Humidity 56    
Precipitation  
Precipitation 0.12 in - - ()
Sea Level Pressure  
Sea Level Pressure 29.61 in    
Wind  
Wind Speed 7 mph ()    
Max Wind Speed 15 mph    
Max Gust Speed 24 mph    
Visibility 6.6 miles    
Events Rain    
T = Trace of Precipitation, MM = Missing Value Source: Averaged Metar Reports

Daily Weather History Graph

Daily Weather History Graph

Search for Another Location

Airport or City:

Trip Planner

Search our weather history database for the weather conditions in past years. The results will help you decide how hot, cold, wet, or windy it might be!

Date:

Astronomy

Dec. 28, 2013 Rise Set
Actual Time 8:24 AM CET 4:30 PM CET
Civil Twilight 7:45 AM CET 5:08 PM CET
Nautical Twilight 7:04 AM CET 5:50 PM CET
Astronomical Twilight 6:24 AM CET 6:29 PM CET
Moon 3:27 AM CET (12/28) 1:23 PM CET (12/28)
Length of Visible Light 9h 23m
Length of Day
8h 06m
Waning Crescent, 21% of the Moon is Illuminated
Dec 28
Waning Crescent
Jan 1
New
Jan 8
First Quarter
Jan 16
Full
Jan 24
Last Quarter

Hourly Weather History & Observations

Time (CET) Temp. Windchill Dew Point Humidity Pressure Visibility Wind Dir Wind Speed Gust Speed Precip Events Conditions
12:00 AM 47 °F - 36 °F 57% 29.63 in 28 mi SSW 8.9 mph - -   Overcast
12:20 AM 46.4 °F 42.9 °F 37.4 °F 71% 29.62 in 6.2 mi SSW 6.9 mph - N/A   Mostly Cloudy
12:50 AM 48.2 °F - 37.4 °F 66% 29.59 in 6.2 mi South 6.9 mph - N/A   Mostly Cloudy
1:00 AM 47 °F - 38 °F 62% 29.61 in 28 mi South 6.7 mph - -   Overcast
1:20 AM 46.4 °F 43.5 °F 39.2 °F 76% 29.59 in 6.2 mi SSW 5.8 mph - N/A   Mostly Cloudy
1:50 AM 46.4 °F - 39.2 °F 76% 29.59 in - Variable 1.2 mph - N/A   Clear
2:00 AM 46 °F - 39 °F 68% 29.60 in 28 mi SW 2.2 mph - -   Overcast
2:20 AM 46.4 °F 45.2 °F 39.2 °F 76% 29.59 in - WNW 3.5 mph - N/A   Clear
2:50 AM 46.4 °F - 39.2 °F 76% 29.59 in - Variable 1.2 mph - N/A   Clear
3:00 AM 46 °F - 39 °F 69% 29.61 in 28 mi SE 2.2 mph - -   Overcast
3:20 AM 46.4 °F - 39.2 °F 76% 29.59 in - Calm Calm - N/A   Clear
3:50 AM 46.4 °F 44.3 °F 39.2 °F 76% 29.56 in - SSE 4.6 mph - N/A   Clear
4:20 AM 46.4 °F 45.2 °F 39.2 °F 76% 29.56 in - SE 3.5 mph - N/A   Clear
4:50 AM 46.4 °F 43.5 °F 39.2 °F 76% 29.56 in - SSE 5.8 mph - N/A   Clear
5:00 AM 46 °F - 39 °F 69% 29.58 in 28 mi SSE 6.7 mph - -   Scattered Clouds
5:20 AM 48.2 °F - 39.2 °F 71% 29.56 in - South 4.6 mph - N/A   Clear
5:50 AM 46.4 °F 44.3 °F 39.2 °F 76% 29.56 in - South 4.6 mph - N/A   Clear
6:00 AM 47 °F - 39 °F 64% 29.57 in 28 mi South 4.5 mph - -   Partly Cloudy
6:20 AM 48.2 °F - 39.2 °F 71% 29.56 in - South 4.6 mph - N/A   Clear
6:50 AM 48.2 °F - 39.2 °F 71% 29.56 in - SSW 3.5 mph - N/A   Clear
7:00 AM 47 °F - 39 °F 64% 29.57 in 25 mi SSW 4.5 mph - -   Mostly Cloudy
7:20 AM 48.2 °F - 39.2 °F 71% 29.53 in - South 9.2 mph - N/A   Clear
7:50 AM 48.2 °F - 37.4 °F 66% 29.53 in 6.2 mi South 8.1 mph - N/A   Mostly Cloudy
8:00 AM 48 °F - 38 °F 60% 29.56 in 25 mi South 8.9 mph - -   Partly Cloudy
8:20 AM 48.2 °F - 37.4 °F 66% 29.56 in 6.2 mi South 10.4 mph - N/A   Mostly Cloudy
8:50 AM 48.2 °F - 37.4 °F 66% 29.56 in 6.2 mi South 9.2 mph - N/A   Mostly Cloudy
9:00 AM 49 °F - 38 °F 56% 29.57 in 25 mi South 8.9 mph - -   Mostly Cloudy
9:20 AM 50.0 °F - 37.4 °F 62% 29.56 in 6.2 mi SSW 13.8 mph - N/A Rain Light Rain
9:50 AM 48.2 °F - 37.4 °F 66% 29.56 in 6.2 mi SSW 12.7 mph 24.2 mph N/A Rain Light Rain
10:20 AM 50.0 °F - 39.2 °F 66% 29.59 in 6.2 mi SSW 9.2 mph - N/A Rain Light Rain
10:50 AM 50.0 °F - 39.2 °F 66% 29.59 in 6.2 mi SSW 11.5 mph - N/A Rain Light Rain
11:00 AM 49 °F - 40 °F 62% 29.62 in 22 mi SSW 11.2 mph - - Rain Light Rain
11:20 AM 48.2 °F - 41.0 °F 76% 29.62 in 6.2 mi South 10.4 mph - N/A Rain Rain
11:50 AM 46.4 °F 43.5 °F 42.8 °F 87% 29.62 in 6.2 mi SSW 5.8 mph - N/A Rain Light Rain
12:00 PM 47 °F - 42 °F 77% 29.64 in 16 mi South 6.7 mph - - Rain Light Rain
12:20 PM 46.4 °F 42.9 °F 42.8 °F 87% 29.62 in 6.2 mi South 6.9 mph 18.4 mph N/A Rain Light Rain
12:50 PM 46.4 °F 41.1 °F 42.8 °F 87% 29.62 in 6.2 mi South 11.5 mph - N/A Rain Rain
1:00 PM 47 °F - 43 °F 80% 29.64 in 19 mi South 11.2 mph - - Rain Rain
1:20 PM 46.4 °F 41.9 °F 44.6 °F 93% 29.62 in 6.2 mi South 9.2 mph - N/A Rain Light Rain
1:50 PM 46.4 °F 42.4 °F 46.4 °F 100% 29.59 in 6.2 mi South 8.1 mph - N/A Rain Light Rain
2:00 PM 47 °F - 45 °F 88% 29.62 in 22 mi South 8.9 mph - - Rain Light Rain
2:20 PM 48.2 °F - 46.4 °F 93% 29.59 in 6.2 mi South 9.2 mph - N/A   Mostly Cloudy
2:50 PM 48.2 °F - 46.4 °F 93% 29.62 in 6.2 mi SSW 11.5 mph - N/A Rain Light Rain
3:00 PM 47 °F - 45 °F 88% 29.63 in 22 mi SSW 11.2 mph - - Rain Light Rain
3:20 PM 46.4 °F 41.9 °F 46.4 °F 100% 29.62 in 6.2 mi South 9.2 mph - N/A Rain Light Rain
3:50 PM 46.4 °F 41.1 °F 46.4 °F 100% 29.62 in 6.2 mi South 11.5 mph - N/A Rain Light Rain
4:20 PM 46.4 °F 41.9 °F 46.4 °F 100% 29.62 in 6.2 mi South 9.2 mph 20.7 mph N/A Rain Light Rain
4:50 PM 46.4 °F 41.5 °F 46.4 °F 100% 29.62 in 6.2 mi South 10.4 mph - N/A Rain Light Rain
5:00 PM 46 °F - 44 °F 91% 29.65 in 9 mi South 11.2 mph - - Rain Light Rain
5:20 PM 46.4 °F 41.5 °F 46.4 °F 100% 29.65 in 6.2 mi South 10.4 mph 24.2 mph N/A Rain Rain
5:50 PM 46.4 °F 41.5 °F 46.4 °F 100% 29.65 in 6.2 mi South 10.4 mph - N/A Rain Rain
6:00 PM 46 °F - 44 °F 92% 29.66 in 7 mi South 11.2 mph - - Rain Rain
6:20 PM 46.4 °F 41.5 °F 46.4 °F 100% 29.65 in 6.2 mi South 10.4 mph 23.0 mph N/A Rain Rain
6:50 PM 46.4 °F 41.1 °F 46.4 °F 100% 29.65 in 5.0 mi South 11.5 mph - N/A Rain Rain
7:00 PM 46 °F - 45 °F 93% 29.66 in 5 mi South 11.2 mph - - Rain Rain
7:20 PM 46.4 °F 41.1 °F 46.4 °F 100% 29.65 in 4.3 mi South 11.5 mph - N/A Rain Rain
7:50 PM 46.4 °F 40.7 °F 46.4 °F 100% 29.65 in 5.0 mi South 12.7 mph - N/A Rain Rain
8:00 PM 46 °F - 45 °F 93% 29.67 in 5 mi South 13.4 mph - - Rain Rain
8:20 PM 46.4 °F 40.4 °F 46.4 °F 100% 29.65 in 5.6 mi South 13.8 mph - N/A Rain Rain
8:50 PM 46.4 °F 40.7 °F 46.4 °F 100% 29.65 in 5.6 mi South 12.7 mph - N/A Rain Rain
9:00 PM 46 °F - 45 °F 93% 29.68 in 6 mi South 13.4 mph - - Rain Rain
9:20 PM 46.4 °F 41.1 °F 46.4 °F 100% 29.68 in 5.6 mi South 11.5 mph - N/A Rain Rain
9:50 PM 46.4 °F 40.7 °F 46.4 °F 100% 29.68 in 5.6 mi South 12.7 mph - N/A Rain Rain
10:20 PM 46.4 °F 41.1 °F 46.4 °F 100% 29.68 in 5.6 mi South 11.5 mph - N/A Rain Rain
10:50 PM 46.4 °F 40.1 °F 46.4 °F 100% 29.68 in 6.2 mi South 15.0 mph - N/A Rain Rain
11:00 PM 46 °F - 44 °F 88% 29.71 in 6 mi South 13.4 mph - - Rain Rain
11:20 PM 44.6 °F 38.1 °F 44.6 °F 100% 29.68 in 6.2 mi South 13.8 mph - N/A   Mostly Cloudy
11:50 PM 44.6 °F 37.8 °F 44.6 °F 100% 29.71 in 6.2 mi South 15.0 mph - N/A Rain Light Rain